This demonstration page uses our WeatherBlox Daily Observations layout. Learn more.

40.92945, -100.16068

Hourly Observations for January 7, 2017

Temp ( °F °C ) Dew Point ( °F °C ) Humidity (%) Winds ( mph kmh ) Pressure ( in mb ) Visibility ( mi km ) Precip ( " mm )
12:15 am 00:15 Clear 0 -18 -7 -21.5 74 74 WNW 10 17 30.62 1037 10 16.0934 0 0
12:35 am 00:35 Clear 1 -17.3 -6 -21 73 73 WNW 12 19 30.62 1037 10 16.0934 0 0
12:55 am 00:55 Clear 0 -17.6 -6 -21.1 74 74 WNW 9 15 30.62 1037 10 16.0934 0 0
1:15 am 01:15 Clear 1 -17.2 -6 -21 73 73 WNW 12 19 30.62 1037 10 16.0934 0 0
1:35 am 01:35 Clear 1 -17 -5 -20.7 73 73 WNW 12 19 30.62 1037 10 16.0934 0 0
1:55 am 01:55 Clear 0 -17.6 -6 -21.3 73 73 WNW 10 17 30.65 1038 10 16.0934 0 0
2:15 am 02:15 Clear -1 -18.1 -7 -21.9 72 72 WNW 8 13 30.65 1038 10 16.0934 0 0
2:35 am 02:35 Clear -1 -18.5 -8 -22.1 73 73 WNW 8 13 30.68 1039 10 16.0934 0 0
2:55 am 02:55 Clear -2 -18.7 -8 -22.2 74 74 WNW 9 15 30.71 1040 10 16.0934 0 0
3:15 am 03:15 Clear -2 -18.7 -8 -22.2 74 74 WNW 8 13 30.71 1040 10 16.0934 0 0
3:35 am 03:35 Clear -3 -19.5 -9 -22.8 75 75 W 5 7 30.71 1040 10 16.0934 0 0
3:55 am 03:55 Clear -4 -20.2 -10 -23.4 76 76 W 9 15 30.71 1040 10 16.0934 0 0
4:15 am 04:15 Clear -5 -20.6 -11 -23.7 76 76 WNW 8 13 30.71 1040 10 16.0934 0 0
4:35 am 04:35 Clear -5 -20.7 -10 -23.6 78 78 WNW 7 11 30.74 1041 10 16.0934 0 0
4:55 am 04:55 Clear -5 -20.5 -10 -23.5 77 77 WNW 10 17 30.71 1040 10 16.0934 0 0
5:15 am 05:15 Clear -5 -20.3 -10 -23.5 76 76 WNW 7 11 30.71 1040 10 16.0934 0 0
5:35 am 05:35 Clear -4 -19.9 -9 -22.9 77 77 NW 5 7 30.74 1041 10 16.0934 0 0
5:55 am 05:55 Clear -3 -19.5 -9 -22.5 77 77 NW 9 15 30.74 1041 10 16.0934 0 0
6:15 am 06:15 Clear -3 -19.6 -9 -22.8 76 76 WNW 8 13 30.74 1041 10 16.0934 0 0
6:35 am 06:35 Clear -3 -19.5 -9 -22.9 75 75 WNW 8 13 30.74 1041 10 16.0934 0 0
6:55 am 06:55 Clear -3 -19.6 -9 -22.9 75 75 WNW 8 13 30.74 1041 10 16.0934 0 0
7:15 am 07:15 Clear -4 -20 -10 -23.3 75 75 WNW 9 15 30.77 1042 10 16.0934 0 0
7:35 am 07:35 Clear -5 -20.6 -11 -24 74 74 WNW 9 15 30.83 1044 10 16.0934 0 0
7:55 am 07:55 Clear -7 -21.6 -13 -24.8 75 75 WNW 7 11 30.83 1044 10 16.0934 0 0
8:15 am 08:15 Sunny -7 -21.5 -12 -24.5 77 77 WNW 8 13 30.83 1044 10 16.0934 0 0
8:35 am 08:35 Sunny -6 -21 -11 -24 77 77 WNW 7 11 30.83 1044 10 16.0934 0 0
8:55 am 08:55 Sunny -4 -20.1 -10 -23.2 76 76 WNW 7 11 30.86 1045 10 16.0934 0 0
9:15 am 09:15 Sunny -2 -19.1 -9 -22.5 75 75 WNW 7 11 30.83 1044 10 16.0934 0 0
9:35 am 09:35 Sunny -1 -18.1 -7 -21.5 75 75 NW 5 7 30.86 1045 10 16.0934 0 0
9:55 am 09:55 Sunny 1 -17.2 -5 -20.7 74 74 NNW 3 6 30.86 1045 10 16.0934 0 0
10:15 am 10:15 Sunny 2 -16.5 -5 -20.3 73 73 NW 5 7 30.83 1044 10 16.0934 0 0
10:35 am 10:35 Sunny 4 -15.4 -3 -19.2 73 73 NNW 6 9 30.83 1044 10 16.0934 0 0
10:55 am 10:55 Sunny 5 -14.9 -2 -18.9 72 72 NW 5 7 30.83 1044 10 16.0934 0 0
11:15 am 11:15 Sunny 8 -13.6 0 -17.7 71 71 W 5 7 30.83 1044 10 16.0934 0 0
11:35 am 11:35 Sunny 9 -12.9 1 -17 72 72 W 5 7 30.83 1044 10 16.0934 0 0
11:55 am 11:55 Sunny 10 -12 2 -16.4 70 70 W 3 6 30.83 1044 10 16.0934 0 0
12:15 pm 12:15 Sunny 11 -11.6 3 -16 70 70 Calm 30.8 1043 10 16.0934 0 0
12:35 pm 12:35 Sunny 12 -11 4 -15.5 70 70 Calm 30.77 1042 10 16.0934 0 0
12:55 pm 12:55 Sunny 13 -10.7 4 -15.3 69 69 Calm 30.77 1042 10 16.0934 0 0
1:15 pm 13:15 Sunny 13 -10.3 5 -15 69 69 Calm 30.77 1042 10 16.0934 0 0
1:35 pm 13:35 Sunny 15 -9.7 6 -14.7 67 67 Calm 30.77 1042 10 16.0934 0 0
1:55 pm 13:55 Sunny 15 -9.3 6 -14.3 67 67 S 3 6 30.77 1042 10 16.0934 0 0
2:15 pm 14:15 Sunny 16 -8.9 6 -14.2 66 66 SSW 3 6 30.77 1042 10 16.0934 0 0
2:35 pm 14:35 Sunny 16 -8.7 7 -13.9 66 66 SSW 3 6 30.74 1041 10 16.0934 0 0
2:55 pm 14:55 Sunny 17 -8.6 8 -13.6 67 67 S 3 6 30.74 1041 10 16.0934 0 0
3:15 pm 15:15 Sunny 17 -8.5 8 -13.5 68 68 Calm 30.74 1041 10 16.0934 0 0
3:35 pm 15:35 Sunny 17 -8.5 8 -13.5 68 68 Calm 30.74 1041 10 16.0934 0 0
3:55 pm 15:55 Sunny 17 -8.5 8 -13.5 68 68 ESE 5 7 30.71 1040 10 16.0934 0 0
4:15 pm 16:15 Sunny 16 -8.8 8 -13.5 69 69 E 5 7 30.74 1041 10 16.0934 0 0
4:35 pm 16:35 Sunny 15 -9.2 7 -14 68 68 ESE 5 7 30.77 1042 10 16.0934 0 0
4:55 pm 16:55 Sunny 14 -10.1 6 -14.3 72 72 ESE 5 7 30.77 1042 10 16.0934 0 0
5:15 pm 17:15 Sunny 12 -10.9 5 -15 72 72 ESE 6 9 30.74 1041 10 16.0934 0 0
5:35 pm 17:35 Clear 11 -11.4 5 -15.2 74 74 ESE 6 9 30.74 1041 10 16.0934 0 0
5:55 pm 17:55 Clear 11 -11.6 4 -15.3 74 74 ESE 6 9 30.74 1041 10 16.0934 0 0
6:15 pm 18:15 Clear 11 -11.5 5 -14.8 77 77 ESE 6 9 30.74 1041 10 16.0934 0 0
6:35 pm 18:35 Clear 11 -11.8 5 -15 77 77 SE 6 9 30.8 1043 10 16.0934 0 0
6:55 pm 18:55 Clear 10 -12.3 5 -15 80 80 ESE 6 9 30.8 1043 10 16.0934 0 0
7:15 pm 19:15 Clear 9 -13 4 -15.6 81 81 ESE 7 11 30.77 1042 10 16.0934 0 0
7:35 pm 19:35 Clear 10 -12.4 4 -15.4 79 79 SE 7 11 30.77 1042 10 16.0934 0 0
7:55 pm 19:55 Clear 9 -12.8 4 -15.5 80 80 SE 5 7 30.77 1042 10 16.0934 0 0
8:15 pm 20:15 Clear 8 -13.6 3 -16.1 82 82 SE 6 9 30.77 1042 10 16.0934 0 0
8:35 pm 20:35 Clear 6 -14.2 2 -16.4 84 84 SE 6 9 30.77 1042 10 16.0934 0 0
8:55 pm 20:55 Clear 7 -13.7 3 -16 83 83 SE 6 9 30.77 1042 10 16.0934 0 0
9:15 pm 21:15 Clear 6 -14.4 2 -16.6 84 84 SE 6 9 30.77 1042 10 16.0934 0 0
9:35 pm 21:35 Clear 6 -14.6 1 -17 82 82 SE 6 9 30.8 1043 10 16.0934 0 0
9:55 pm 21:55 Clear 5 -15.1 0 -17.7 81 81 SE 5 7 30.8 1043 10 16.0934 0 0
10:15 pm 22:15 Clear 4 -15.5 0 -17.8 83 83 SE 6 9 30.77 1042 10 16.0934 0 0
10:35 pm 22:35 Clear 5 -14.8 1 -17.1 83 83 SE 6 9 30.77 1042 10 16.0934 0 0
10:55 pm 22:55 Clear 5 -15 1 -17.4 82 82 SE 8 13 30.77 1042 10 16.0934 0 0
11:15 pm 23:15 Clear 6 -14.2 2 -16.7 82 82 SE 8 13 30.71 1040 10 16.0934 0 0
11:35 pm 23:35 Clear 7 -13.7 3 -16.3 81 81 SE 10 17 30.68 1039 10 16.0934 0 0
11:55 pm 23:55 Clear 8 -13.6 3 -16.1 82 82 SE 8 13 30.68 1039 10 16.0934 0 0

Powered by AerisWeather